LBT05 LICJ-DTMB

Flight info

Callsign LBT05
Flight time 0h 48m
Altitude 31000
Route TRP6U TRP DCT ATLEL ATLEL1R
Aircraft A320/M-SDE3FGHIRWY/LB1

Departure

Time 2026-05-07 12:57
Airport Falcone–Borsellino Airport (LICJ)

Arrival

Time 2026-05-07 13:46
Airport Monastir Habib Bourguiba International Airport (DTMB)
Time Latitude Longitude Altitude Speed Heading
2026-05-07 12:33 38.18568 13.10659 9 ft 0 kts 337°
2026-05-07 12:46 38.18561 13.10662 10 ft 4 kts 336°
2026-05-07 12:46 38.18537 13.10678 11 ft 4 kts 327°
2026-05-07 12:46 38.18516 13.10699 9 ft 4 kts 307°
2026-05-07 12:47 38.18507 13.10725 9 ft 2 kts 248°
2026-05-07 12:47 38.18510 13.10733 9 ft 0 kts 246°
2026-05-07 12:49 38.18499 13.10700 11 ft 10 kts 246°
2026-05-07 12:50 38.18469 13.10613 9 ft 10 kts 246°
2026-05-07 12:50 38.18441 13.10534 10 ft 8 kts 239°
2026-05-07 12:50 38.18397 13.10504 9 ft 7 kts 199°
2026-05-07 12:50 38.18349 13.10482 9 ft 8 kts 201°
2026-05-07 12:51 38.18314 13.10434 9 ft 7 kts 245°
2026-05-07 12:51 38.18289 13.10373 9 ft 8 kts 225°
2026-05-07 12:51 38.18239 13.10366 11 ft 7 kts 178°
2026-05-07 12:51 38.18190 13.10298 9 ft 13 kts 246°
2026-05-07 12:52 38.18157 13.10200 11 ft 12 kts 247°
2026-05-07 12:52 38.18125 13.10106 9 ft 11 kts 247°
2026-05-07 12:52 38.18094 13.10013 10 ft 14 kts 247°
2026-05-07 12:52 38.18048 13.09875 9 ft 18 kts 247°
2026-05-07 12:53 38.18001 13.09736 12 ft 16 kts 247°
2026-05-07 12:53 38.17958 13.09607 10 ft 15 kts 247°
2026-05-07 12:53 38.17918 13.09490 10 ft 14 kts 247°
2026-05-07 12:53 38.17884 13.09386 14 ft 12 kts 247°
2026-05-07 12:54 38.17857 13.09306 14 ft 9 kts 246°
2026-05-07 12:54 38.17813 13.09178 13 ft 20 kts 246°
2026-05-07 12:54 38.17758 13.09014 10 ft 19 kts 247°
2026-05-07 12:54 38.17689 13.08909 9 ft 12 kts 217°
2026-05-07 12:55 38.17631 13.08854 9 ft 10 kts 217°
2026-05-07 12:55 38.17579 13.08804 9 ft 9 kts 217°
2026-05-07 12:55 38.17528 13.08757 9 ft 9 kts 212°
2026-05-07 12:55 38.17485 13.08773 9 ft 6 kts 119°
2026-05-07 12:56 38.17485 13.08817 9 ft 5 kts 71°
2026-05-07 12:56 38.17496 13.08847 9 ft 0 kts 66°
2026-05-07 12:56 38.17497 13.08848 9 ft 3 kts 66°
2026-05-07 12:57 38.17605 13.09164 13 ft 78 kts 66°
2026-05-07 12:57 38.17909 13.10068 11 ft 141 kts 67°
2026-05-07 12:57 38.18319 13.11330 472 ft 157 kts 66°
2026-05-07 12:57 38.18723 13.12661 1260 ft 165 kts 68°
2026-05-07 12:58 38.19149 13.14051 2019 ft 171 kts 66°
2026-05-07 12:58 38.19665 13.15410 2664 ft 175 kts 62°
2026-05-07 12:58 38.20218 13.16802 3299 ft 179 kts 66°
2026-05-07 12:58 38.20879 13.18243 3667 ft 201 kts 44°
2026-05-07 12:59 38.22221 13.18957 4047 ft 225 kts 359°
2026-05-07 12:59 38.23749 13.18492 4796 ft 232 kts 340°
2026-05-07 12:59 38.25261 13.17708 5659 ft 235 kts 338°
2026-05-07 12:59 38.26732 13.16779 6515 ft 239 kts 324°
2026-05-07 13:00 38.27771 13.15149 7256 ft 245 kts 292°
2026-05-07 13:00 38.28038 13.12973 7800 ft 262 kts 259°
2026-05-07 13:00 38.27427 13.10703 8249 ft 281 kts 245°
2026-05-07 13:00 38.26628 13.08369 9064 ft 288 kts 244°
2026-05-07 13:01 38.25818 13.06026 10016 ft 291 kts 244°
2026-05-07 13:01 38.24973 13.03571 10462 ft 313 kts 245°
2026-05-07 13:01 38.24099 13.01013 11065 ft 324 kts 245°
2026-05-07 13:01 38.23200 12.98360 11889 ft 328 kts 246°
2026-05-07 13:02 38.22300 12.95691 12783 ft 330 kts 246°
2026-05-07 13:02 38.21378 12.92969 13661 ft 331 kts 245°
2026-05-07 13:02 38.20187 12.90489 14409 ft 334 kts 231°
2026-05-07 13:02 38.18584 12.88340 15159 ft 336 kts 226°
2026-05-07 13:03 38.16933 12.86228 15909 ft 337 kts 226°
2026-05-07 13:03 38.15277 12.84107 16666 ft 339 kts 226°
2026-05-07 13:03 38.13602 12.81958 17410 ft 342 kts 226°
2026-05-07 13:03 38.11925 12.79808 18163 ft 344 kts 226°
2026-05-07 13:04 38.10248 12.77662 18778 ft 346 kts 226°
2026-05-07 13:04 38.08544 12.75482 19426 ft 348 kts 226°
2026-05-07 13:04 38.06841 12.73303 20130 ft 348 kts 226°
2026-05-07 13:04 38.05150 12.71140 20780 ft 349 kts 227°
2026-05-07 13:05 38.03434 12.68947 21438 ft 350 kts 227°
2026-05-07 13:05 38.01711 12.66745 22051 ft 352 kts 227°
2026-05-07 13:05 37.99981 12.64538 22694 ft 353 kts 227°
2026-05-07 13:05 37.98242 12.62325 23316 ft 354 kts 227°
2026-05-07 13:06 37.96503 12.60110 23854 ft 355 kts 227°
2026-05-07 13:06 37.94767 12.57897 24372 ft 356 kts 227°
2026-05-07 13:06 37.93016 12.55668 24867 ft 357 kts 227°
2026-05-07 13:06 37.91263 12.53441 25367 ft 358 kts 228°
2026-05-07 13:07 37.89482 12.51217 25855 ft 360 kts 225°
2026-05-07 13:07 37.87543 12.49169 26327 ft 363 kts 223°
2026-05-07 13:07 37.85592 12.47133 26794 ft 364 kts 223°
2026-05-07 13:07 37.83654 12.45112 27240 ft 366 kts 223°
2026-05-07 13:08 37.81682 12.43058 27685 ft 368 kts 223°
2026-05-07 13:08 37.79701 12.40995 28126 ft 369 kts 223°
2026-05-07 13:08 37.77713 12.38928 28546 ft 371 kts 223°
2026-05-07 13:08 37.75712 12.36843 28975 ft 373 kts 224°
2026-05-07 13:09 37.73693 12.34740 29387 ft 375 kts 224°
2026-05-07 13:09 37.71702 12.32670 29803 ft 377 kts 224°
2026-05-07 13:09 37.69673 12.30562 30175 ft 378 kts 224°
2026-05-07 13:09 37.67637 12.28450 30516 ft 380 kts 224°
2026-05-07 13:10 37.65584 12.26321 30820 ft 381 kts 224°
2026-05-07 13:10 37.63537 12.24204 30894 ft 374 kts 224°
2026-05-07 13:10 37.61569 12.22177 30900 ft 356 kts 224°
2026-05-07 13:10 37.59672 12.20228 30898 ft 346 kts 224°
2026-05-07 13:11 37.56001 12.16437 30901 ft 342 kts 224°
2026-05-07 13:11 37.52313 12.12612 30898 ft 342 kts 224°
2026-05-07 13:12 37.48639 12.08822 30898 ft 342 kts 224°
2026-05-07 13:12 37.44947 12.05018 30899 ft 342 kts 224°
2026-05-07 13:13 37.41269 12.01235 30895 ft 341 kts 224°
2026-05-07 13:13 37.37593 11.97467 30891 ft 340 kts 224°
2026-05-07 13:14 37.33946 11.93725 30888 ft 340 kts 224°
2026-05-07 13:14 37.30281 11.89974 30884 ft 339 kts 224°
2026-05-07 13:15 37.26617 11.86228 30878 ft 339 kts 224°
2026-05-07 13:15 37.22954 11.82478 30877 ft 339 kts 224°
2026-05-07 13:16 37.19317 11.78764 30876 ft 339 kts 224°
2026-05-07 13:16 37.15642 11.75029 30876 ft 339 kts 224°
2026-05-07 13:17 37.11990 11.71315 30876 ft 339 kts 224°
2026-05-07 13:17 37.08324 11.67585 30876 ft 339 kts 224°
2026-05-07 13:18 37.04663 11.63867 30878 ft 339 kts 224°
2026-05-07 13:18 37.00995 11.60150 30883 ft 338 kts 224°
2026-05-07 13:19 36.97358 11.56462 30882 ft 338 kts 224°
2026-05-07 13:19 36.93694 11.52761 30887 ft 338 kts 224°
2026-05-07 13:20 36.90022 11.49053 30884 ft 338 kts 224°
2026-05-07 13:20 36.86391 11.45390 30884 ft 338 kts 224°
2026-05-07 13:21 36.82742 11.41720 30576 ft 333 kts 224°
2026-05-07 13:21 36.80945 11.39915 30345 ft 330 kts 224°
2026-05-07 13:21 36.79171 11.38136 30048 ft 322 kts 224°
2026-05-07 13:22 36.77437 11.36401 29659 ft 317 kts 224°
2026-05-07 13:22 36.76306 11.35271 29417 ft 313 kts 224°
2026-05-07 13:22 36.74625 11.33588 29069 ft 306 kts 224°
2026-05-07 13:22 36.72976 11.31935 28732 ft 300 kts 224°
2026-05-07 13:23 36.70846 11.29794 28297 ft 293 kts 224°
2026-05-07 13:23 36.69776 11.28720 28084 ft 292 kts 224°
2026-05-07 13:23 36.68201 11.27136 27755 ft 291 kts 224°
2026-05-07 13:23 36.66648 11.25575 27433 ft 290 kts 224°
2026-05-07 13:24 36.65076 11.24001 27101 ft 289 kts 224°
2026-05-07 13:24 36.63516 11.22439 26762 ft 288 kts 224°
2026-05-07 13:24 36.61953 11.20874 26425 ft 287 kts 224°
2026-05-07 13:24 36.60395 11.19317 26074 ft 286 kts 224°
2026-05-07 13:25 36.58864 11.17789 25738 ft 285 kts 224°
2026-05-07 13:25 36.57294 11.16228 25382 ft 284 kts 224°
2026-05-07 13:25 36.55771 11.14714 25037 ft 283 kts 223°
2026-05-07 13:25 36.54235 11.13186 24674 ft 282 kts 223°
2026-05-07 13:26 36.52712 11.11667 24317 ft 280 kts 223°
2026-05-07 13:26 36.51188 11.10146 23951 ft 279 kts 223°
2026-05-07 13:26 36.49674 11.08639 23586 ft 278 kts 223°
2026-05-07 13:26 36.48164 11.07134 23175 ft 277 kts 223°
2026-05-07 13:27 36.46662 11.05638 22799 ft 276 kts 223°
2026-05-07 13:27 36.45166 11.04148 22446 ft 275 kts 223°
2026-05-07 13:27 36.43693 11.02683 22093 ft 274 kts 223°
2026-05-07 13:27 36.42204 11.01202 21748 ft 273 kts 223°
2026-05-07 13:28 36.40725 10.99734 21404 ft 271 kts 223°
2026-05-07 13:28 36.39252 10.98272 21067 ft 270 kts 223°
2026-05-07 13:28 36.37782 10.96816 20716 ft 270 kts 223°
2026-05-07 13:28 36.36313 10.95364 20388 ft 269 kts 223°
2026-05-07 13:29 36.34853 10.93922 20050 ft 268 kts 223°
2026-05-07 13:29 36.33389 10.92521 19664 ft 271 kts 218°
2026-05-07 13:29 36.31679 10.91469 19252 ft 279 kts 205°
2026-05-07 13:29 36.29771 10.90855 18823 ft 285 kts 200°
2026-05-07 13:30 36.27836 10.90284 18393 ft 287 kts 200°
2026-05-07 13:30 36.25881 10.89702 17938 ft 290 kts 200°
2026-05-07 13:30 36.23911 10.89115 17494 ft 291 kts 200°
2026-05-07 13:30 36.21964 10.88538 17072 ft 291 kts 200°
2026-05-07 13:31 36.19990 10.87953 16645 ft 292 kts 200°
2026-05-07 13:31 36.18013 10.87366 16238 ft 292 kts 200°
2026-05-07 13:31 36.16034 10.86778 15823 ft 293 kts 200°
2026-05-07 13:31 36.14043 10.86188 15409 ft 294 kts 200°
2026-05-07 13:32 36.12050 10.85596 14998 ft 295 kts 200°
2026-05-07 13:32 36.10057 10.85007 14578 ft 296 kts 200°
2026-05-07 13:32 36.08042 10.84413 14167 ft 297 kts 200°
2026-05-07 13:32 36.06055 10.83826 13763 ft 298 kts 200°
2026-05-07 13:33 36.04040 10.83229 13314 ft 298 kts 200°
2026-05-07 13:33 36.02019 10.82632 12886 ft 298 kts 199°
2026-05-07 13:33 36.00024 10.82047 12486 ft 291 kts 199°
2026-05-07 13:33 35.98134 10.81297 12018 ft 278 kts 216°
2026-05-07 13:34 35.96873 10.79624 11604 ft 264 kts 247°
2026-05-07 13:34 35.96958 10.75268 10954 ft 252 kts 273°
2026-05-07 13:34 35.97050 10.73159 10595 ft 248 kts 266°
2026-05-07 13:35 35.96908 10.71035 10233 ft 247 kts 260°
2026-05-07 13:35 35.96589 10.68946 9865 ft 248 kts 256°
2026-05-07 13:35 35.96130 10.66889 9462 ft 248 kts 251°
2026-05-07 13:35 35.95545 10.64897 9069 ft 247 kts 248°
2026-05-07 13:36 35.94836 10.62972 8695 ft 246 kts 244°
2026-05-07 13:36 35.94007 10.61118 8317 ft 246 kts 240°
2026-05-07 13:36 35.93093 10.59397 7949 ft 245 kts 236°
2026-05-07 13:36 35.92051 10.57729 7582 ft 245 kts 232°
2026-05-07 13:37 35.90898 10.56155 7195 ft 248 kts 228°
2026-05-07 13:37 35.89640 10.54699 6824 ft 249 kts 223°
2026-05-07 13:37 35.88279 10.53364 6426 ft 252 kts 219°
2026-05-07 13:37 35.86814 10.52149 6076 ft 252 kts 214°
2026-05-07 13:38 35.85283 10.51090 5707 ft 253 kts 210°
2026-05-07 13:38 35.83679 10.50188 5314 ft 253 kts 205°
2026-05-07 13:38 35.82034 10.49461 5009 ft 252 kts 200°
2026-05-07 13:38 35.80385 10.48913 4944 ft 240 kts 196°
2026-05-07 13:39 35.78775 10.48527 4850 ft 231 kts 192°
2026-05-07 13:39 35.77192 10.48297 4752 ft 225 kts 187°
2026-05-07 13:39 35.75670 10.48209 4653 ft 216 kts 184°
2026-05-07 13:39 35.74214 10.48246 4564 ft 202 kts 180°
2026-05-07 13:40 35.72854 10.48392 4457 ft 191 kts 176°
2026-05-07 13:40 35.71582 10.48651 4366 ft 180 kts 166°
2026-05-07 13:40 35.70579 10.49501 4293 ft 174 kts 125°
2026-05-07 13:40 35.70106 10.50852 3962 ft 176 kts 97°
2026-05-07 13:41 35.70220 10.52347 3602 ft 176 kts 70°
2026-05-07 13:41 35.70567 10.53771 3346 ft 169 kts 70°
2026-05-07 13:41 35.70895 10.55121 3109 ft 160 kts 70°
2026-05-07 13:41 35.71198 10.56370 2911 ft 148 kts 70°
2026-05-07 13:42 35.71483 10.57551 2721 ft 140 kts 70°
2026-05-07 13:42 35.71757 10.58686 2522 ft 137 kts 69°
2026-05-07 13:42 35.72027 10.59800 2354 ft 135 kts 69°
2026-05-07 13:42 35.72290 10.60888 2170 ft 133 kts 70°
2026-05-07 13:43 35.72556 10.61989 2009 ft 132 kts 70°
2026-05-07 13:43 35.72814 10.63057 1829 ft 129 kts 70°
2026-05-07 13:43 35.73069 10.64114 1666 ft 131 kts 71°
2026-05-07 13:43 35.73328 10.65188 1476 ft 129 kts 70°
2026-05-07 13:44 35.73581 10.66236 1315 ft 130 kts 71°
2026-05-07 13:44 35.73834 10.67290 1131 ft 128 kts 71°
2026-05-07 13:44 35.74091 10.68351 980 ft 130 kts 71°
2026-05-07 13:44 35.74362 10.69404 852 ft 128 kts 71°
2026-05-07 13:45 35.74611 10.70461 728 ft 128 kts 72°
2026-05-07 13:45 35.74853 10.71518 497 ft 129 kts 71°
2026-05-07 13:45 35.75111 10.72584 306 ft 131 kts 70°
2026-05-07 13:45 35.75365 10.73649 99 ft 130 kts 70°
2026-05-07 13:46 35.75616 10.74693 14 ft 116 kts 73°
2026-05-07 13:46 35.75795 10.75446 14 ft 67 kts 73°
2026-05-07 13:46 35.75881 10.75809 12 ft 31 kts 73°
2026-05-07 13:46 35.75942 10.76060 12 ft 29 kts 74°
2026-05-07 13:47 35.75981 10.76214 11 ft 10 kts 65°
2026-05-07 13:47 35.76039 10.76247 11 ft 10 kts 354°
2026-05-07 13:47 35.76100 10.76225 11 ft 9 kts 337°
2026-05-07 13:47 35.76133 10.76165 10 ft 8 kts 279°
2026-05-07 13:48 35.76122 10.76098 10 ft 8 kts 252°
2026-05-07 13:48 35.76107 10.76038 12 ft 7 kts 254°
2026-05-07 13:48 35.76090 10.75981 11 ft 7 kts 237°
2026-05-07 13:48 35.76060 10.75940 10 ft 6 kts 232°
2026-05-07 13:49 35.76045 10.75893 10 ft 6 kts 253°
2026-05-07 13:49 35.76033 10.75844 11 ft 7 kts 253°
2026-05-07 13:49 35.76020 10.75788 11 ft 7 kts 253°
2026-05-07 13:49 35.76007 10.75737 11 ft 6 kts 253°
2026-05-07 13:50 35.75994 10.75681 11 ft 9 kts 253°
2026-05-07 13:50 35.75977 10.75609 11 ft 8 kts 253°
2026-05-07 13:50 35.75961 10.75544 10 ft 8 kts 253°
2026-05-07 13:50 35.75947 10.75483 12 ft 7 kts 253°
2026-05-07 13:51 35.75934 10.75428 12 ft 6 kts 253°
2026-05-07 13:51 35.75921 10.75378 12 ft 6 kts 255°
2026-05-07 13:51 35.75941 10.75346 11 ft 5 kts 330°
2026-05-07 13:51 35.75968 10.75335 13 ft 4 kts 343°
2026-05-07 13:52 35.75981 10.75330 11 ft 0 kts 343°